STARLINK-2502 (48327 NORAD) Tracking and Keplerian Element Data

This shows tracking and keplerian element data for the satellite.

Feedback or suggestion? Click here.




ElementValue
Catalog48327
NameSTARLINK-2502
Epoch Orbit1482
Epoch Day214.72246459
Epoch Year2021
RAAN83.2692
Inclination53.0551
Eccentricity0.0002296
Argument of Perigee88.1351
Mean Anonmoly271.9901
Mean Motion15.06398807
Decay Rate8.95E-06
L11 48327U 21036BD 21214.72246459 .00000895 00000-0 78998-4 0 9992
L22 48327 53.0551 83.2692 0002296 88.1351 271.9901 15.06398807 14821

Live tracking and technical data element details for STARLINK-2502 (NORAD 48327). STARLINK-2502 can be tracked NOW for your location showing map with azimuth and elevation plus other details from your city location.

Track the satellite on the map from your city or location and see movement details for azimuth, elevation, latitude, longitude, range, height, and movement on the map or in text.







IsCatalogInMostPopularTable: catalog: 48327, numindb: 38
Update: records affected: 1



GetName: 48327 STARLINK-2502

Hit Count: updated at: Tue, 03 Aug 2021 23:36:02 GMT